• In Portugal
  • List of Countries
  • For 7 days
  • Water Temperature
  • Satellite Maps
  • Weather Map
  • Weather Widgets
  • user-avatar
    Login

    Hourly Weather Laszkar Gah

    Today, 23 January, Tuesday

    Time Temperature Precipitation Wind Pressure Humidity
    00:00 +10°C° 0 mm 1 mps 694 mmHg 59%
    01:00 +9°C° 0 mm 1 mps 694 mmHg 60%
    02:00 +9°C° 0 mm 1 mps 694 mmHg 61%
    03:00 +9°C° 0 mm 1 mps 693 mmHg 62%
    04:00 +8°C° 0 mm 1 mps 693 mmHg 62%
    05:00 +8°C° 0 mm 1 mps 693 mmHg 63%
    06:00 +8°C° 0 mm 1 mps 694 mmHg 63%
    07:00 +7°C° 0 mm 1 mps 694 mmHg 63%
    08:00 +9°C° 0 mm 1 mps 694 mmHg 55%
    09:00 +11°C° 0 mm 1 mps 695 mmHg 48%
    10:00 +13°C° 0 mm 1 mps 695 mmHg 38%
    11:00 +14°C° 0 mm 2 mps 695 mmHg 34%
    12:00 +15°C° 0 mm 2 mps 695 mmHg 30%
    13:00 +16°C° 0 mm 2 mps 694 mmHg 27%
    14:00 +16°C° 0 mm 2 mps 694 mmHg 26%
    15:00 +16°C° 0 mm 1 mps 694 mmHg 24%
    16:00 +16°C° 0 mm 1 mps 693 mmHg 23%
    17:00 +15°C° 0 mm 1 mps 693 mmHg 25%
    18:00 +14°C° 0 mm 1 mps 693 mmHg 28%
    19:00 +13°C° 0 mm 1 mps 693 mmHg 30%
    20:00 +12°C° 0 mm 1 mps 693 mmHg 31%
    21:00 +12°C° 0 mm 1 mps 693 mmHg 32%
    22:00 +12°C° 0 mm 1 mps 693 mmHg 33%
    23:00 +10°C° 0 mm 2 mps 693 mmHg 34%

    Tomorrow, 24 January, Wednesday

    Time Temperature Precipitation Wind Pressure Humidity
    00:00 +10°C° 0 mm 2 mps 693 mmHg 34%
    01:00 +10°C° 0 mm 2 mps 692 mmHg 35%
    02:00 +10°C° 0 mm 2 mps 692 mmHg 35%
    03:00 +9°C° 0 mm 2 mps 692 mmHg 36%
    04:00 +9°C° 0 mm 2 mps 692 mmHg 37%
    05:00 +9°C° 0 mm 2 mps 692 mmHg 38%
    06:00 +9°C° 0 mm 2 mps 692 mmHg 38%
    07:00 +8°C° 0 mm 2 mps 692 mmHg 39%
    08:00 +10°C° 0 mm 2 mps 693 mmHg 34%
    09:00 +13°C° 0 mm 2 mps 694 mmHg 30%
    10:00 +15°C° 0 mm 2 mps 694 mmHg 25%
    11:00 +16°C° 0 mm 2 mps 694 mmHg 22%
    12:00 +18°C° 0 mm 1 mps 694 mmHg 20%
    13:00 +17°C° 0 mm 0 mps 694 mmHg 18%
    14:00 +19°C° 0 mm 1 mps 693 mmHg 17%
    15:00 +20°C° 0 mm 1 mps 693 mmHg 16%
    16:00 +20°C° 0 mm 1 mps 693 mmHg 15%
    17:00 +18°C° 0 mm 1 mps 693 mmHg 18%
    18:00 +16°C° 0 mm 1 mps 693 mmHg 20%
    19:00 +14°C° 0 mm 1 mps 693 mmHg 23%
    20:00 +14°C° 0 mm 1 mps 693 mmHg 23%
    21:00 +13°C° 0 mm 1 mps 693 mmHg 24%
    22:00 +12°C° 0 mm 1 mps 693 mmHg 25%
    23:00 +12°C° 0 mm 1 mps 693 mmHg 26%

    Day after tomorrow, 25 January, Thursday

    Time Temperature Precipitation Wind Pressure Humidity
    00:00 +12°C° 0 mm 1 mps 693 mmHg 26%
    01:00 +11°C° 0 mm 1 mps 693 mmHg 27%
    02:00 +11°C° 0 mm 1 mps 693 mmHg 27%
    03:00 +11°C° 0 mm 1 mps 693 mmHg 27%
    04:00 +11°C° 0 mm 1 mps 693 mmHg 28%
    05:00 +10°C° 0 mm 1 mps 693 mmHg 28%
    06:00 +10°C° 0 mm 1 mps 693 mmHg 29%
    07:00 +10°C° 0 mm 1 mps 693 mmHg 29%
    08:00 +12°C° 0 mm 1 mps 694 mmHg 25%
    09:00 +14°C° 0 mm 2 mps 695 mmHg 21%
    10:00 +17°C° 0 mm 2 mps 696 mmHg 18%
    11:00 +18°C° 0 mm 2 mps 695 mmHg 16%
    12:00 +19°C° 0 mm 3 mps 695 mmHg 15%
    13:00 +20°C° 0 mm 3 mps 695 mmHg 14%
    14:00 +21°C° 0 mm 4 mps 694 mmHg 14%
    15:00 +21°C° 0 mm 4 mps 694 mmHg 14%
    16:00 +21°C° 0 mm 4 mps 694 mmHg 13%
    17:00 +19°C° 0 mm 4 mps 694 mmHg 15%
    18:00 +18°C° 0 mm 4 mps 694 mmHg 17%
    19:00 +15°C° 0 mm 4 mps 694 mmHg 19%
    20:00 +16°C° 0 mm 3 mps 694 mmHg 20%
    21:00 +14°C° 0 mm 3 mps 694 mmHg 21%
    22:00 +13°C° 0 mm 3 mps 694 mmHg 22%
    23:00 +14°C° 0 mm 2 mps 694 mmHg 23%

    26 January, Friday

    Time Temperature Precipitation Wind Pressure Humidity
    00:00 +13°C° 0 mm 2 mps 694 mmHg 24%
    01:00 +12°C° 0 mm 2 mps 693 mmHg 25%
    02:00 +12°C° 0 mm 2 mps 693 mmHg 26%
    03:00 +10°C° 0 mm 2 mps 693 mmHg 26%
    04:00 +10°C° 0 mm 2 mps 693 mmHg 27%
    05:00 +10°C° 0 mm 2 mps 693 mmHg 28%
    06:00 +9°C° 0 mm 2 mps 693 mmHg 29%
    07:00 +9°C° 0 mm 2 mps 694 mmHg 29%
    08:00 +12°C° 0 mm 2 mps 694 mmHg 26%
    09:00 +14°C° 0 mm 2 mps 695 mmHg 23%
    10:00 +16°C° 0 mm 2 mps 696 mmHg 19%
    11:00 +17°C° 0 mm 2 mps 695 mmHg 18%
    12:00 +18°C° 0 mm 2 mps 695 mmHg 16%
    13:00 +19°C° 0 mm 2 mps 694 mmHg 15%
    14:00 +19°C° 0 mm 2 mps 694 mmHg 15%
    15:00 +20°C° 0 mm 3 mps 694 mmHg 14%
    16:00 +20°C° 0 mm 3 mps 694 mmHg 14%
    17:00 +18°C° 0 mm 3 mps 694 mmHg 15%
    18:00 +17°C° 0 mm 3 mps 694 mmHg 17%
    19:00 +16°C° 0 mm 3 mps 694 mmHg 18%
    20:00 +14°C° 0 mm 3 mps 694 mmHg 19%
    21:00 +13°C° 0 mm 3 mps 694 mmHg 19%
    22:00 +12°C° 0 mm 3 mps 694 mmHg 20%
    23:00 +13°C° 0 mm 2 mps 693 mmHg 21%

    27 January, Saturday

    Time Temperature Precipitation Wind Pressure Humidity
    00:00 +12°C° 0 mm 2 mps 693 mmHg 22%
    01:00 +12°C° 0 mm 2 mps 693 mmHg 23%
    02:00 +10°C° 0 mm 2 mps 692 mmHg 23%
    03:00 +10°C° 0 mm 2 mps 692 mmHg 24%
    04:00 +10°C° 0 mm 1 mps 692 mmHg 24%
    05:00 +10°C° 0 mm 1 mps 692 mmHg 25%
    06:00 +10°C° 0 mm 1 mps 692 mmHg 25%
    07:00 +9°C° 0 mm 1 mps 692 mmHg 26%
    08:00 +12°C° 0 mm 1 mps 693 mmHg 23%
    09:00 +14°C° 0 mm 1 mps 694 mmHg 19%
    10:00 +16°C° 0 mm 1 mps 694 mmHg 16%
    11:00 +18°C° 0 mm 1 mps 694 mmHg 15%
    12:00 +19°C° 0 mm 1 mps 693 mmHg 14%
    13:00 +20°C° 0 mm 1 mps 693 mmHg 13%
    14:00 +20°C° 0 mm 1 mps 693 mmHg 12%
    15:00 +20°C° 0 mm 1 mps 692 mmHg 12%
    16:00 +21°C° 0 mm 1 mps 692 mmHg 12%
    17:00 +19°C° 0 mm 1 mps 692 mmHg 14%
    18:00 +18°C° 0 mm 1 mps 692 mmHg 15%
    19:00 +15°C° 0 mm 1 mps 692 mmHg 17%
    20:00 +15°C° 0 mm 1 mps 692 mmHg 17%
    21:00 +15°C° 0 mm 2 mps 692 mmHg 18%
    22:00 +14°C° 0 mm 2 mps 692 mmHg 18%
    23:00 +14°C° 0 mm 2 mps 691 mmHg 18%

    28 January, Sunday

    Time Temperature Precipitation Wind Pressure Humidity
    00:00 +13°C° 0 mm 3 mps 691 mmHg 18%
    01:00 +12°C° 0 mm 3 mps 691 mmHg 19%
    02:00 +12°C° 0 mm 3 mps 690 mmHg 19%
    03:00 +12°C° 0 mm 3 mps 690 mmHg 20%
    04:00 +12°C° 0 mm 3 mps 690 mmHg 20%
    05:00 +11°C° 0 mm 4 mps 690 mmHg 20%
    06:00 +11°C° 0 mm 4 mps 690 mmHg 20%
    07:00 +11°C° 0 mm 4 mps 690 mmHg 20%
    08:00 +13°C° 0 mm 4 mps 691 mmHg 18%
    09:00 +15°C° 0 mm 4 mps 691 mmHg 15%
    10:00 +17°C° 0 mm 5 mps 691 mmHg 12%
    11:00 +20°C° 0 mm 4 mps 691 mmHg 12%
    12:00 +21°C° 0 mm 4 mps 690 mmHg 11%
    13:00 +22°C° 0 mm 4 mps 689 mmHg 10%
    14:00 +22°C° 0 mm 4 mps 689 mmHg 11%
    15:00 +22°C° 0 mm 4 mps 688 mmHg 12%
    16:00 +22°C° 0 mm 3 mps 687 mmHg 13%
    17:00 +21°C° 0 mm 3 mps 687 mmHg 15%
    18:00 +20°C° 0 mm 3 mps 687 mmHg 17%
    19:00 +19°C° 0 mm 2 mps 687 mmHg 18%
    20:00 +19°C° 0 mm 3 mps 687 mmHg 19%
    21:00 +19°C° 0 mm 4 mps 687 mmHg 20%
    22:00 +19°C° 0 mm 5 mps 687 mmHg 20%
    23:00 +17°C° 0 mm 5 mps 687 mmHg 22%
    Show more